TimeEST,TemperatureF,Dew PointF,Humidity,Sea Level PressureIn,VisibilityMPH,Wind Direction,Wind SpeedMPH,Gust SpeedMPH,PrecipitationIn,Events,Conditions,WindDirDegrees,DateUTC
12:00 AM,44.2,43.5,97,-9999,-9999.0,NNW,1.2,-,N/A,,Unknown,330,2012-12-04 05:00:00
1:00 AM,43,42,96,,,North,1.2,,,,,10,2012-12-04 06:00:00
1:00 AM,42.8,42.3,98,-9999,-9999.0,North,1.2,-,N/A,,Unknown,10,2012-12-04 06:00:00
2:00 AM,43.2,42.8,99,-9999,-9999.0,NE,2.3,-,N/A,,Unknown,40,2012-12-04 07:00:00
3:00 AM,51.1,50.7,99,-9999,-9999.0,West,2.3,-,N/A,,Unknown,280,2012-12-04 08:00:00
4:00 AM,56.3,53.6,91,-9999,-9999.0,WSW,2.3,-,N/A,,Unknown,240,2012-12-04 09:00:00
5:00 AM,56.7,52.3,85,-9999,-9999.0,WSW,3.5,-,N/A,,Unknown,250,2012-12-04 10:00:00
6:00 AM,58.6,52.7,81,-9999,-9999.0,WSW,4.6,-,N/A,,Unknown,250,2012-12-04 11:00:00
7:00 AM,59,53,74,,,WSW,3.5,,,,,240,2012-12-04 12:00:00
7:00 AM,58.8,52.9,81,-9999,-9999.0,WSW,3.5,-,N/A,,Unknown,240,2012-12-04 12:00:00
8:00 AM,59.0,52.3,79,-9999,-9999.0,SW,3.5,-,N/A,,Unknown,230,2012-12-04 13:00:00
9:00 AM,62.2,52.2,70,-9999,-9999.0,WSW,5.8,-,N/A,,Unknown,240,2012-12-04 14:00:00
10:00 AM,64.8,52.2,64,-9999,-9999.0,SW,6.9,-,N/A,,Unknown,230,2012-12-04 15:00:00
11:00 AM,64.4,52.2,64,-9999,-9999.0,WSW,10.4,18.4,N/A,,Unknown,240,2012-12-04 16:00:00
12:00 PM,59.4,54.0,82,-9999,-9999.0,WSW,10.4,23.0,N/A,,Unknown,250,2012-12-04 17:00:00
1:00 PM,57,54,87,,,WSW,6.9,,,,,250,2012-12-04 18:00:00
1:00 PM,56.7,54.1,91,-9999,-9999.0,WSW,6.9,-,0.04,,Unknown,250,2012-12-04 18:00:00
2:00 PM,55.4,54.0,95,-9999,-9999.0,WSW,4.6,-,0.10,,Unknown,240,2012-12-04 19:00:00
3:00 PM,54.9,52.5,92,-9999,-9999.0,West,4.6,-,0.05,,Unknown,270,2012-12-04 20:00:00
4:00 PM,53.4,51.6,94,-9999,-9999.0,West,4.6,-,N/A,,Unknown,260,2012-12-04 21:00:00
5:00 PM,51.4,49.5,93,-9999,-9999.0,SW,3.5,-,0.01,,Unknown,230,2012-12-04 22:00:00
6:00 PM,50.5,47.5,89,-9999,-9999.0,West,3.5,-,N/A,,Unknown,260,2012-12-04 23:00:00
7:00 PM,49,46,87,,,WSW,3.5,,,,,250,2012-12-05 00:00:00
7:00 PM,49.1,46.2,90,-9999,-9999.0,WSW,3.5,-,N/A,,Unknown,250,2012-12-05 00:00:00
8:00 PM,48.4,44.6,87,-9999,-9999.0,WSW,4.6,-,N/A,,Unknown,250,2012-12-05 01:00:00
9:00 PM,47.1,43.7,88,-9999,-9999.0,WSW,3.5,-,N/A,,Unknown,250,2012-12-05 02:00:00
10:00 PM,45.5,41.4,85,-9999,-9999.0,WSW,3.5,-,N/A,,Unknown,250,2012-12-05 03:00:00
11:00 PM,44.6,39.6,82,-9999,-9999.0,WSW,5.8,-,N/A,,Unknown,250,2012-12-05 04:00:00